Home > Weather > Berlin > Past weeks

Flag for Germany Past Weather in Berlin, Berlin, Germany — Yesterday and Last 2 Weeks

Now
57 °F

Sunny.


Feels Like: 57 °F
Forecast: 59 / 80 °F
Wind: 2 mph from North

Location: Berlin-Tegel

Current Time: May 28, 2016 at 7:57:19 AM

Latest Report: May 28, 2016 at 7:20 AM


Visibility: 10 mi

Pressure: 30.01 "Hg

Humidity: 72%

Dew Point: 48 °F

Location of BerlinLocation

Past Weather in Berlin — Graph

°F

Berlin Temperature Yesterday

Maximum temperature yesterday: 70 °F (at 4:20 PM)
Minimum temperature yesterday: 48 °F (at 3:20 AM)
Average temperature yesterday: 61 °F

High & Low Weather Summary for the Past Weeks

 TemperatureHumidityPressure
High84 °F (May 22, 2:50 PM)100% (May 24, 5:20 AM)30.07 "Hg (May 24, 5:20 AM)
Low41 °F (May 16, 2:50 AM)20% (May 19, 2:50 PM)29.50 "Hg (May 13, 2:50 PM)
Average59 °F63%29.88 "Hg
* Reported May 13 6:20 AM — May 28 6:20 AM, Berlin, Weather by CustomWeather, © 2016

Note: Actual official high and low records may vary slightly from our data, if they occured in-between our weather recording intervals... More about our weather records

Advertising

Berlin Weather History for the Previous 24 Hours

Scroll right to see more
 ConditionsComfort  
Time TempWeatherWind HumidityBarometerVisibility
6:20 AM
Sat, May 28
55 °FPassing clouds.5 mph77%30.01 "HgN/A
5:50 AM54 °FClear.2 mph82%30.01 "Hg10 mi
5:20 AM54 °FPassing clouds.5 mph82%30.01 "HgN/A
4:50 AM52 °FClear.2 mph82%30.01 "Hg10 mi
4:20 AM54 °FClear.2 mph77%30.01 "Hg10 mi
3:50 AM55 °FClear.2 mph77%30.01 "Hg10 mi
3:20 AM55 °FClear.2 mph77%30.01 "Hg10 mi
2:50 AM55 °FPassing clouds.3 mph72%30.01 "HgN/A
2:20 AM57 °FPassing clouds.5 mph72%30.01 "HgN/A
1:50 AM57 °FPassing clouds.3 mph72%30.01 "HgN/A
1:20 AM57 °FPassing clouds.5 mph72%30.01 "HgN/A
12:50 AM59 °FPassing clouds.5 mph68%30.01 "HgN/A
12:20 AM59 °FPassing clouds.5 mph72%30.01 "HgN/A
11:50 PM
Fri, May 27
61 °FPassing clouds.3 mph72%30.01 "HgN/A
11:20 PM63 °FClear.2 mph73%30.01 "Hg10 mi
10:50 PM63 °FPassing clouds.5 mph73%30.04 "HgN/A
10:20 PM63 °FPassing clouds.5 mph73%30.04 "HgN/A
9:50 PM64 °FScattered clouds.6 mph64%30.04 "HgN/A
9:20 PM66 °FPassing clouds.5 mph60%30.01 "HgN/A
8:50 PM66 °FPassing clouds.5 mph64%30.01 "HgN/A
8:20 PM66 °FPassing clouds.3 mph56%30.01 "HgN/A
7:50 PM68 °FPassing clouds.5 mph49%30.01 "HgN/A
7:20 PM68 °FPassing clouds.7 mph49%30.01 "HgN/A
6:50 PM70 °FSunny.5 mph43%30.01 "Hg10 mi
6:20 PM68 °FBroken clouds.5 mph46%30.01 "HgN/A
5:50 PM68 °FBroken clouds.3 mph46%30.01 "HgN/A
5:20 PM70 °FBroken clouds.3 mph43%30.01 "HgN/A
4:50 PM70 °FBroken clouds.5 mph43%30.01 "HgN/A
4:20 PM70 °FPartly sunny.7 mph46%30.01 "HgN/A
3:50 PM68 °FPartly sunny.6 mph46%30.04 "HgN/A
3:20 PM68 °FPartly sunny.6 mph49%30.04 "HgN/A
2:50 PM68 °FPartly sunny.7 mph49%30.04 "HgN/A
2:20 PM68 °FBroken clouds.7 mph49%30.04 "HgN/A
1:50 PM66 °FBroken clouds.8 mph52%30.04 "HgN/A
1:20 PM68 °FBroken clouds.7 mph49%30.04 "HgN/A
12:50 PM68 °FBroken clouds.3 mph53%30.04 "HgN/A
12:20 PM66 °FBroken clouds.7 mph60%30.04 "HgN/A
11:50 AM66 °FBroken clouds.7 mph60%30.04 "HgN/A
11:20 AM64 °FBroken clouds.5 mph68%30.04 "HgN/A
10:50 AM64 °FBroken clouds.3 mph73%30.04 "HgN/A
10:20 AM64 °FPartly sunny.5 mph73%30.04 "HgN/A
9:50 AM61 °FPartly sunny.3 mph83%30.04 "HgN/A
9:20 AM59 °FPartly sunny.5 mph88%30.04 "HgN/A
8:50 AM57 °FPartly sunny.3 mph94%30.04 "Hg6 mi
8:20 AM55 °FPartly sunny.3 mph100%30.04 "Hg4 mi
7:50 AM55 °FFog.2 mph94%30.04 "Hg1 mi
7:20 AM54 °FFog.2 mph94%30.04 "Hg0 mi
Weather by CustomWeather, © 2016

See weather overviewHow to use our weather pages